Windom, MN

5:22 AM CST on February 18, 2018 (GMT -0600)
Windom Municipal

Weather History for KMWM - February, 2013

Change the Weather History Date:

Tuesday, February 19, 2013

  Actual Average Record
Temperature  
Mean Temperature -1 °F -  
Max Temperature 3 °F 30 °F 64 °F (2017)
Min Temperature -5 °F 11 °F -31 °F (1959)
Degree Days  
Heating Degree Days 66    
Moisture  
Dew Point -7 °F    
Average Humidity 77    
Maximum Humidity 85    
Minimum Humidity 71    
Precipitation  
Precipitation 0.00 in - - ()
Sea Level Pressure  
Sea Level Pressure 30.14 in    
Wind  
Wind Speed 26 mph (NW)    
Max Wind Speed 37 mph    
Max Gust Speed 45 mph    
Visibility 7 miles    
Events Snow    
Averages and records for this station are not official NWS values.
T = Trace of Precipitation, MM = Missing Value Source: NWS Daily Summary

Daily Weather History Graph

Daily Weather History Graph

Search for Another Location

Airport or City:

Trip Planner

Search our weather history database for the weather conditions in past years. The results will help you decide how hot, cold, wet, or windy it might be!

Date:

Astronomy

Feb. 19, 2013 Rise Set
Actual Time 7:12 AM CST 5:56 PM CST
Civil Twilight 6:43 AM CST 6:25 PM CST
Nautical Twilight 6:10 AM CST 6:59 PM CST
Astronomical Twilight 5:36 AM CST 7:32 PM CST
Moon 12:22 PM CST (2/19) 2:51 AM CST (2/19)
Length of Visible Light 11h 41m
Length of Day
10h 43m
Waxing Gibbous, 67% of the Moon is Illuminated
Feb 19
Waxing Gibbous
Feb 25
Full
Mar 4
Last Quarter
Mar 11
New
Mar 19
First Quarter

Hourly Weather History & Observations

Time (CST) Temp. Windchill Dew Point Humidity Pressure Visibility Wind Dir Wind Speed Gust Speed Precip Events Conditions
12:12 AM 1.4 °F -24.3 °F -4.0 °F 78% 29.89 in 2.0 mi NW 31.1 mph 42.6 mph N/A   Haze
12:33 AM -0.4 °F -26.7 °F -5.8 °F 78% 29.89 in 2.0 mi NW 31.1 mph 43.7 mph N/A   Haze
12:52 AM -0.4 °F -28.1 °F -5.8 °F 78% 29.91 in 2.0 mi NW 35.7 mph 44.9 mph N/A   Haze
1:12 AM -0.4 °F -28.1 °F -5.8 °F 78% 29.90 in 2.0 mi NW 35.7 mph 42.6 mph N/A   Haze
1:33 AM -0.4 °F -24.7 °F -5.8 °F 78% 29.94 in 5.0 mi NW 25.3 mph 41.4 mph N/A   Haze
1:52 AM -0.4 °F -25.6 °F -5.8 °F 78% 29.96 in 3.0 mi NW 27.6 mph 36.8 mph N/A   Haze
2:12 AM -0.4 °F -26.0 °F -5.8 °F 78% 29.97 in 4.0 mi NW 28.8 mph 43.7 mph N/A   Haze
2:33 AM -0.4 °F -28.5 °F -5.8 °F 78% 29.94 in 5.0 mi NW 36.8 mph 42.6 mph N/A   Haze
2:52 AM -0.4 °F -26.0 °F -5.8 °F 78% 29.97 in 10.0 mi NW 28.8 mph 36.8 mph N/A   Overcast
3:12 AM -0.4 °F -26.7 °F -5.8 °F 78% 29.95 in 10.0 mi NW 31.1 mph 38.0 mph N/A   Overcast
3:32 AM -0.4 °F -22.8 °F -4.0 °F 85% 29.99 in 2.0 mi NW 20.7 mph 26.5 mph N/A   Overcast
3:52 AM 1.4 °F -21.4 °F -4.0 °F 78% 29.98 in 7.0 mi NW 23.0 mph 32.2 mph N/A   Overcast
4:13 AM 1.4 °F -22.7 °F -4.0 °F 78% 29.98 in 3.0 mi NW 26.5 mph 39.1 mph N/A   Haze
4:32 AM 1.4 °F -22.7 °F -4.0 °F 78% 29.98 in 3.0 mi WNW 26.5 mph 32.2 mph N/A   Haze
4:52 AM -0.4 °F -24.7 °F -4.0 °F 85% 29.99 in 2.5 mi NW 25.3 mph 35.7 mph N/A   Overcast
5:13 AM -0.4 °F -25.6 °F -5.8 °F 78% 29.99 in 3.0 mi WNW 27.6 mph 34.5 mph N/A   Haze
5:32 AM -0.4 °F -24.7 °F -5.8 °F 78% 30.02 in 2.5 mi NW 25.3 mph 39.1 mph N/A Snow Light Snow
5:52 AM -0.4 °F -25.6 °F -5.8 °F 78% 30.02 in 1.8 mi NW 27.6 mph 35.7 mph N/A   Haze
6:13 AM -0.4 °F -24.7 °F -5.8 °F 78% 30.02 in 4.0 mi NW 25.3 mph 36.8 mph N/A   Haze
6:32 AM -0.4 °F -22.8 °F -7.6 °F 72% 30.06 in 7.0 mi WNW 20.7 mph 32.2 mph N/A   Overcast
6:52 AM -0.4 °F -24.3 °F -5.8 °F 78% 30.05 in 5.0 mi WNW 24.2 mph 33.4 mph N/A   Haze
7:12 AM -2.2 °F -27.6 °F -7.6 °F 78% 30.06 in 7.0 mi WNW 26.5 mph 33.4 mph N/A   Overcast
7:32 AM -2.2 °F -28.0 °F -9.4 °F 71% 30.06 in 10.0 mi WNW 27.6 mph 39.1 mph N/A   Overcast
7:53 AM -4.0 °F -31.3 °F -9.4 °F 78% 30.07 in 4.0 mi NW 29.9 mph 36.8 mph N/A   Haze
8:12 AM -5.8 °F -31.5 °F -11.2 °F 77% 30.10 in 3.0 mi WNW 24.2 mph 35.7 mph N/A   Haze
8:32 AM -5.8 °F -31.5 °F -9.4 °F 84% 30.13 in 3.0 mi WNW 24.2 mph 38.0 mph N/A   Haze
8:53 AM -4.0 °F -30.0 °F -9.4 °F 78% 30.12 in 2.5 mi WNW 26.5 mph 33.4 mph N/A   Haze
9:12 AM -5.8 °F -32.9 °F -11.2 °F 77% 30.12 in 2.0 mi NW 27.6 mph 34.5 mph N/A   Haze
9:32 AM -5.8 °F -33.7 °F -11.2 °F 77% 30.12 in 2.0 mi NW 29.9 mph 35.7 mph N/A   Haze
9:53 AM -4.0 °F -30.0 °F -9.4 °F 78% 30.14 in 4.0 mi NW 26.5 mph 32.2 mph N/A   Haze
10:12 AM -4.0 °F -29.6 °F -9.4 °F 78% 30.14 in 4.0 mi WNW 25.3 mph 35.7 mph N/A   Haze
10:32 AM -2.2 °F -27.6 °F -9.4 °F 71% 30.14 in 10.0 mi NW 26.5 mph 33.4 mph N/A   Overcast
10:53 AM -2.2 °F -28.0 °F -9.4 °F 71% 30.15 in 3.0 mi NW 27.6 mph 33.4 mph N/A   Haze
11:12 AM -2.2 °F -27.1 °F -9.4 °F 71% 30.17 in 4.0 mi NW 25.3 mph 32.2 mph N/A   Haze
11:32 AM -2.2 °F -25.7 °F -7.6 °F 78% 30.18 in 5.0 mi WNW 21.9 mph 29.9 mph N/A   Haze
11:53 AM -0.4 °F -23.3 °F -7.6 °F 72% 30.19 in 7.0 mi WNW 21.9 mph 33.4 mph N/A   Scattered Clouds
12:32 PM -0.4 °F -25.2 °F -5.8 °F 78% 30.18 in 5.0 mi WNW 26.5 mph 31.1 mph N/A   Haze
12:53 PM -0.4 °F -24.7 °F -5.8 °F 78% 30.19 in 7.0 mi WNW 25.3 mph 33.4 mph N/A   Scattered Clouds
1:12 PM 1.4 °F -22.7 °F -4.0 °F 78% 30.19 in 5.0 mi WNW 26.5 mph 31.1 mph N/A   Haze
1:33 PM 1.4 °F -22.7 °F -5.8 °F 72% 30.18 in 10.0 mi WNW 26.5 mph 33.4 mph N/A   Scattered Clouds
1:52 PM 1.4 °F -21.9 °F -4.0 °F 78% 30.17 in 10.0 mi WNW 24.2 mph 33.4 mph N/A   Clear
2:12 PM 1.4 °F -20.5 °F -5.8 °F 72% 30.19 in 10.0 mi NW 20.7 mph 31.1 mph N/A   Clear
2:33 PM 3.2 °F -18.1 °F -4.0 °F 72% 30.20 in 10.0 mi WNW 20.7 mph 29.9 mph N/A   Clear
2:52 PM 1.4 °F -21.4 °F -5.8 °F 72% 30.20 in 10.0 mi WNW 23.0 mph 32.2 mph N/A   Clear
3:12 PM 1.4 °F -21.9 °F -5.8 °F 72% 30.20 in 10.0 mi NW 24.2 mph 31.1 mph N/A   Clear
3:33 PM 1.4 °F -21.4 °F -4.0 °F 78% 30.21 in 10.0 mi WNW 23.0 mph 29.9 mph N/A   Clear
3:52 PM 1.4 °F -22.3 °F -4.0 °F 78% 30.20 in 10.0 mi WNW 25.3 mph 29.9 mph N/A   Clear
4:12 PM 1.4 °F -21.0 °F -5.8 °F 72% 30.22 in 10.0 mi WNW 21.9 mph 27.6 mph N/A   Clear
4:33 PM 1.4 °F -19.4 °F -5.8 °F 72% 30.23 in 10.0 mi NW 18.4 mph 31.1 mph N/A   Clear
4:52 PM 1.4 °F -21.0 °F -5.8 °F 72% 30.23 in 10.0 mi NW 21.9 mph 27.6 mph N/A   Clear
5:12 PM 1.4 °F -21.0 °F -5.8 °F 72% 30.23 in 10.0 mi NW 21.9 mph 29.9 mph N/A   Clear
5:33 PM 1.4 °F -21.9 °F -5.8 °F 72% 30.24 in 10.0 mi NW 24.2 mph 29.9 mph N/A   Clear
6:33 PM -0.4 °F -22.8 °F -7.6 °F 72% 30.27 in 10.0 mi NW 20.7 mph 25.3 mph N/A   Clear
6:52 PM -2.2 °F -22.2 °F -7.6 °F 78% 30.27 in 10.0 mi NW 15.0 mph 25.3 mph N/A   Clear
7:12 PM -2.2 °F -24.1 °F -7.6 °F 78% 30.28 in 10.0 mi NW 18.4 mph 26.5 mph N/A   Clear
7:52 PM -2.2 °F -25.2 °F -7.6 °F 78% 30.29 in 10.0 mi NW 20.7 mph 24.2 mph N/A   Clear
8:12 PM -2.2 °F -24.1 °F -7.6 °F 78% 30.29 in 10.0 mi NNW 18.4 mph - N/A   Clear
8:33 PM -4.0 °F -26.4 °F -9.4 °F 78% 30.29 in 10.0 mi NNW 18.4 mph 25.3 mph N/A   Clear
8:52 PM -4.0 °F -25.2 °F -9.4 °F 78% 30.29 in 10.0 mi North 16.1 mph 23.0 mph N/A   Clear
9:12 PM -5.8 °F -26.8 °F -9.4 °F 84% 30.31 in 10.0 mi NNW 15.0 mph 20.7 mph N/A   Clear
9:33 PM -5.8 °F -24.4 °F -9.4 °F 84% 30.32 in 10.0 mi NW 11.5 mph - N/A   Clear
9:52 PM -5.8 °F -26.0 °F -9.4 °F 84% 30.33 in 10.0 mi NW 13.8 mph - N/A   Clear
10:12 PM -5.8 °F -24.4 °F -9.4 °F 84% 30.34 in 10.0 mi NW 11.5 mph - N/A   Clear
10:33 PM -5.8 °F -26.8 °F -11.2 °F 77% 30.35 in 10.0 mi NW 15.0 mph - N/A   Clear
10:52 PM -5.8 °F -26.0 °F -11.2 °F 77% 30.35 in 10.0 mi NW 13.8 mph - N/A   Clear
11:12 PM -5.8 °F -25.2 °F -11.2 °F 77% 30.35 in 10.0 mi NNW 12.7 mph - N/A   Clear
11:33 PM -5.8 °F -26.0 °F -11.2 °F 77% 30.35 in 10.0 mi NW 13.8 mph - N/A   Clear
11:52 PM -5.8 °F -25.2 °F -11.2 °F 77% 30.36 in 10.0 mi NW 12.7 mph - N/A   Clear